IR0UGI-3 Weather Reports


time (UTC)temp
C
wind
direction
speed
KPH
gust
KPH
rain 1hr
cm
rain 24hr
cm
rain mn
cm
humidity
%
barometer
mb
20260508071004 9 186 14.5 20.9 0.00 0.13 0.13 78 1021.0
20260508070005 9 193 16.1 20.9 0.00 0.13 0.13 78 1021.0
20260508065004 9 202 17.7 20.9 0.00 0.13 0.13 79 1020.8
20260508063005 9 202 16.1 24.1 0.00 0.13 0.13 80 1021.0
20260508062005 9 200 19.3 22.5 0.00 0.13 0.13 79 1020.8
20260508061005 8 203 17.7 25.7 0.00 0.13 0.13 80 1020.8
20260508055005 8 206 17.7 29.0 0.00 0.13 0.13 84 1020.4
20260508054005 8 208 19.3 27.4 0.00 0.13 0.13 83 1020.2
20260508053005 8 194 19.3 27.4 0.00 0.13 0.13 86 1020.2
20260508052005 8 185 24.1 27.4 0.00 0.13 0.13 88 1020.1
20260508050005 7 202 24.1 35.4 0.00 0.13 0.13 88 1019.9
20260508045005 8 199 27.4 37.0 0.00 0.13 0.13 86 1019.8
20260508044005 8 186 24.1 33.8 0.03 0.13 0.13 84 1020.0
20260508043004 7 187 20.9 35.4 0.03 0.13 0.13 86 1019.9
20260508042005 7 184 25.7 35.4 0.03 0.13 0.13 86 1019.6
20260508035004 8 196 25.7 32.2 0.13 0.13 0.13 85 1019.8
20260508034005 8 186 14.5 32.2 0.10 0.10 0.10 86 1019.9
20260508033005 8 185 24.1 32.2 0.10 0.10 0.10 86 1020.0
20260508032005 8 163 22.5 32.2 0.10 0.10 0.10 87 1019.7
20260508030005 8 169 14.5 25.7 0.03 0.03 0.03 82 1019.9
20260508025005 9 165 16.1 27.4 0.00 0.00 0.00 77 1020.0
20260508024004 10 166 16.1 27.4 0.00 0.00 0.00 73 1019.9
20260508023005 10 165 19.3 35.4 0.00 0.00 0.00 73 1019.7
20260508022005 10 173 25.7 35.4 0.00 0.00 0.00 66 1019.9
20260508021004 10 171 16.1 24.1 0.00 0.00 0.00 67 1020.1
20260508015005 10 183 16.1 24.1 0.00 0.00 0.00 67 1020.3
20260508014005 11 188 16.1 32.2 0.00 0.00 0.00 65 1020.2
20260508013005 11 213 6.4 25.7 0.00 0.00 0.00 68 1020.3
20260508012005 10 166 12.9 20.9 0.00 0.00 0.00 72 1020.2
20260508011005 11 175 14.5 25.7 0.00 0.00 0.00 71 1020.0
20260508010005 11 176 19.3 29.0 0.00 0.00 0.00 68 1020.0
20260508005004 11 174 16.1 33.8 0.00 0.00 0.00 68 1019.9
20260508004005 11 174 24.1 32.2 0.00 0.00 0.00 68 1019.8
20260508003005 11 179 22.5 29.0 0.00 0.00 0.00 69 1019.9
20260508002005 11 177 22.5 32.2 0.00 0.00 0.00 72 1019.8
20260508001004 11 178 27.4 33.8 0.00 0.00 0.00 68 1020.0
20260508000005 11 179 17.7 22.5 0.00 0.00 0.00 69 1020.4
20260507235005 11 185 14.5 24.1 0.00 0.00 0.00 70 1020.7
20260507234005 11 178 14.5 24.1 0.00 0.00 0.00 73 1020.5
20260507233004 11 191 16.1 20.9 0.00 0.00 0.00 74 1020.9
20260507232004 11 200 14.5 17.7 0.00 0.00 0.00 77 1020.8
20260507230005 11 212 14.5 20.9 0.00 0.00 0.00 77 1021.0
20260507225005 11 214 12.9 17.7 0.00 0.00 0.00 78 1021.2
20260507224004 10 208 12.9 22.5 0.00 0.00 0.00 80 1020.9
20260507223004 10 212 17.7 24.1 0.00 0.00 0.00 79 1021.1
20260507222004 10 212 19.3 27.4 0.00 0.00 0.00 79 1021.0
20260507221005 10 208 20.9 29.0 0.00 0.00 0.00 78 1020.9
20260507220008 10 213 22.5 29.0 0.00 0.00 0.00 78 1020.9
20260507215004 10 206 17.7 25.7 0.00 0.00 0.00 77 1020.9
20260507214005 10 209 17.7 22.5 0.00 0.00 0.00 79 1021.1
20260507213004 10 205 14.5 22.5 0.00 0.00 0.00 81 1021.3
20260507212004 10 198 16.1 22.5 0.00 0.00 0.00 83 1021.4
20260507211004 10 199 17.7 20.9 0.00 0.00 0.00 85 1021.4
20260507210005 10 199 16.1 20.9 0.00 0.00 0.00 86 1021.3
20260507205004 10 206 16.1 20.9 0.00 0.00 0.00 87 1021.4
20260507203005 10 201 12.9 20.9 0.00 0.00 0.00 90 1021.4
20260507202005 10 191 17.7 20.9 0.00 0.00 0.00 92 1021.2
20260507200004 10 182 16.1 20.9 0.00 0.00 0.00 94 1021.3
20260507195004 9 181 14.5 22.5 0.00 0.00 0.00 96 1021.2
20260507193004 9 181 12.9 22.5 0.00 0.00 0.00 99 1021.3
20260507192004 9 185 17.7 20.9 0.00 0.00 0.00 99 1021.0
20260507191004 10 185 12.9 14.5 0.00 0.00 0.00 99 1021.2
20260507190005 9 199 8.0 17.7 0.00 0.00 0.00 99 1021.0
20260507185004 10 200 11.3 22.5 0.00 0.00 0.00 99 1021.0
20260507184004 10 200 17.7 24.1 0.00 0.00 0.00 99 1020.7
20260507183004 10 198 17.7 24.1 0.00 0.03 0.00 98 1020.6
20260507180005 11 200 12.9 14.5 0.00 0.03 0.00 78 1020.5
20260507175004 11 210 9.7 12.9 0.00 0.03 0.00 73 1020.9
20260507174004 11 199 11.3 14.5 0.00 0.03 0.00 79 1020.7
20260507173004 11 204 11.3 14.5 0.00 0.03 0.00 79 1020.7
20260507172004 11 214 12.9 14.5 0.00 0.03 0.00 75 1020.7
20260507171004 11 206 9.7 12.9 0.00 0.03 0.00 81 1020.8
20260507165004 11 221 8.0 14.5 0.00 0.03 0.00 81 1020.8
20260507164004 11 226 6.4 17.7 0.00 0.03 0.00 79 1021.0
20260507163004 11 219 11.3 14.5 0.00 0.03 0.00 76 1021.2
20260507161005 10 199 8.0 14.5 0.00 0.03 0.00 96 1021.3
20260507160005 10 199 9.7 12.9 0.00 0.03 0.00 97 1021.3
20260507154005 10 221 8.0 12.9 0.00 0.05 0.00 97 1021.2
20260507153005 10 214 8.0 12.9 0.00 0.05 0.00 95 1021.2
20260507150006 10 228 11.3 20.9 0.00 0.13 0.00 97 1021.3
20260507145005 10 211 12.9 17.7 0.00 0.15 0.00 96 1021.3
20260507144005 10 222 6.4 17.7 0.00 0.20 0.00 98 1021.5
20260507143005 10 213 6.4 22.5 0.00 0.23 0.00 95 1021.4
20260507141007 11 248 8.0 12.9 0.00 0.23 0.00 93 1021.3
20260507140006 11 239 8.0 11.3 0.00 0.23 0.00 95 1021.6
20260507135005 12 242 8.0 11.3 0.00 0.28 0.00 90 1021.8
20260507133005 12 269 4.8 11.3 0.00 0.33 0.00 90 1021.7
20260507132005 12 259 4.8 12.9 0.00 0.33 0.00 86 1021.9
20260507131005 12 261 6.4 17.7 0.00 0.33 0.00 82 1022.1
20260507130005 12 252 6.4 12.9 0.00 0.33 0.00 78 1021.8
20260507125006 13 235 6.4 11.3 0.00 0.36 0.00 78 1022.1
20260507124005 13 270 1.6 11.3 0.00 0.36 0.00 76 1022.2
20260507123005 13 231 3.2 12.9 0.00 0.36 0.00 85 1022.2
20260507122005 13 269 4.8 11.3 0.00 0.36 0.00 81 1022.2
20260507121005 12 269 6.4 12.9 0.00 0.36 0.00 79 1022.3
20260507115005 13 269 4.8 11.3 0.00 0.38 0.00 81 1022.3
20260507113005 13 244 6.4 11.3 0.00 0.48 0.00 82 1022.5
20260507112005 13 260 4.8 12.9 0.00 0.48 0.00 80 1022.6
20260507111005 13 265 3.2 11.3 0.00 0.48 0.00 83 1022.5
20260507105005 13 203 1.6 11.3 0.00 0.48 0.00 86 1022.7
20260507104005 13 231 4.8 14.5 0.00 0.48 0.00 82 1022.6
20260507102007 12 219 8.0 14.5 0.00 0.48 0.00 90 1022.8
20260507100005 11 253 4.8 12.9 0.00 0.48 0.00 91 1022.5
20260507095005 11 227 3.2 12.9 0.00 0.48 0.00 90 1022.6
20260507094005 12 224 6.4 14.5 0.00 0.48 0.00 85 1022.6
20260507092005 10 206 6.4 14.5 0.00 0.48 0.00 96 1022.7
20260507091005 11 206 6.4 14.5 0.00 0.48 0.00 95 1022.5
20260507090006 10 205 8.0 14.5 0.00 0.48 0.00 97 1022.7
20260507085005 10 203 9.7 14.5 0.00 0.48 0.00 97 1022.5
20260507083005 11 202 9.7 14.5 0.00 0.48 0.00 95 1022.5
20260507081005 11 211 6.4 12.9 0.00 0.48 0.00 94 1022.3
20260507080005 11 192 6.4 12.9 0.00 0.48 0.00 94 1022.3
20260507075005 11 210 3.2 12.9 0.00 0.48 0.00 94 1022.4
20260507074004 11 210 8.0 12.9 0.00 0.48 0.00 93 1022.3